PST,Max TemperatureF,Mean TemperatureF,Min TemperatureF,Max Dew PointF,MeanDew PointF,Min DewpointF,Max Humidity, Mean Humidity, Min Humidity, Max Sea Level PressureIn, Mean Sea Level PressureIn, Min Sea Level PressureIn, Max VisibilityMiles, Mean VisibilityMiles, Min VisibilityMiles, Max Wind SpeedMPH, Mean Wind SpeedMPH, Max Gust SpeedMPH,PrecipitationIn, CloudCover, Events, WindDirDegrees
2013-2-1,51,42,32,40,35,32,100,81,61,30.42,30.34,30.27,10,10,10,10,5,14,0.00,0,,142
2013-2-2,48,39,29,40,33,28,100,83,66,30.43,30.36,30.26,10,9,2,12,5,13,0.00,0,,258
2013-2-3,50,39,28,39,34,27,100,83,66,30.25,30.19,30.13,10,8,2,17,6,20,0.00,1,,192
2013-2-4,48,42,35,38,36,34,92,77,61,30.14,30.06,29.89,10,10,10,13,4,13,0.00,5,,152
2013-2-5,49,41,33,39,36,32,100,81,61,29.99,29.90,29.87,10,8,2,17,5,19,T,5,,226
2013-2-6,50,42,34,35,31,26,76,63,49,30.09,30.00,29.85,10,10,10,17,6,20,T,2,,90
2013-2-7,47,39,30,34,29,25,79,62,45,30.07,29.96,29.84,10,10,10,20,8,24,T,6,Rain,200
2013-2-8,41,34,27,29,26,24,85,72,59,30.18,30.14,30.07,10,10,10,12,5,13,0.00,5,,172
2013-2-9,44,36,27,32,28,24,92,75,57,30.20,30.14,30.09,10,10,10,16,6,19,0.00,5,,209
2013-2-10,46,37,27,33,29,26,100,77,53,30.28,30.24,30.21,10,10,9,12,6,13,0.00,0,,179
2013-2-11,48,36,24,36,30,22,92,74,56,30.27,30.22,30.19,10,10,10,18,7,23,0.00,3,,215
2013-2-12,51,44,37,39,35,33,85,72,59,30.34,30.31,30.27,10,10,10,26,13,32,0.00,6,,243
2013-2-13,52,45,37,36,34,31,76,63,50,30.40,30.30,30.26,10,10,10,43,19,51,0.00,2,,248
2013-2-14,52,42,31,37,32,28,96,74,52,30.52,30.47,30.41,10,10,10,14,5,17,0.00,2,,159
2013-2-15,57,44,30,40,35,30,100,77,54,30.51,30.39,30.23,10,10,8,14,6,18,0.00,0,,87
2013-2-16,55,41,27,39,32,27,100,77,54,30.22,30.12,30.04,10,8,0,32,14,42,T,2,Fog,219
2013-2-17,48,37,25,28,25,22,81,60,39,30.17,30.12,30.08,10,10,10,24,11,32,0.00,1,,265
2013-2-18,42,33,24,30,27,22,92,73,53,30.08,29.91,29.77,10,10,10,17,5,20,T,4,Rain,222
2013-2-19,43,35,26,35,32,27,100,83,65,29.92,29.76,29.69,10,8,1,10,5,13,0.01,7,Rain,116
2013-2-20,47,38,28,31,28,26,92,69,45,30.02,29.98,29.93,10,10,10,20,7,26,0.00,4,,242
2013-2-21,45,38,30,34,29,26,85,67,49,30.08,30.05,30.02,10,10,10,31,12,36,T,7,Rain,208
2013-2-22,47,40,33,38,33,28,86,70,53,30.05,29.91,29.77,10,10,8,33,14,39,0.10,7,Rain,211
2013-2-23,48,41,34,29,26,24,75,59,42,30.32,30.08,29.91,10,10,10,37,25,43,0.00,4,,261
2013-2-24,46,37,28,26,25,23,75,60,45,30.36,30.26,30.03,10,10,10,17,8,21,0.00,3,,195
2013-2-25,49,40,30,36,29,25,85,64,42,30.22,30.07,29.96,10,10,5,39,21,47,0.07,3,Rain,255
2013-2-26,48,39,29,25,23,21,72,55,37,30.35,30.28,30.21,10,10,10,26,8,34,0.00,1,,195
2013-2-27,55,42,28,34,26,22,69,49,29,30.30,30.25,30.22,10,10,10,12,4,14,0.00,4,,178
2013-2-28,51,46,40,48,42,33,100,85,70,30.38,30.29,30.22,10,10,6,12,7,13,0.21,8,Rain,135